Data supplied by UK-AIR on 15/5/2021
All Data GMT hour ending 
Status: R =Ratified P=Provisional,P*=As supplied
,,Billingham,,,,,,,,,,,,,,,,,,,,,,,
Date,time,"Nitric oxide",status,unit,"Nitrogen dioxide",status,unit,"Nitrogen oxides as nitrogen dioxide",status,unit
 
01-01-2020,01:00,0.90726,R,ugm-3,12.08985,R,ugm-3,13.48095,R,ugm-3
01-01-2020,02:00,0.85055,R,ugm-3,9.85841,R,ugm-3,11.16257,R,ugm-3
01-01-2020,03:00,0.85055,R,ugm-3,9.77254,R,ugm-3,11.07671,R,ugm-3
01-01-2020,04:00,0.93561,R,ugm-3,10.15732,R,ugm-3,11.59190,R,ugm-3
01-01-2020,05:00,1.06319,R,ugm-3,12.73088,R,ugm-3,14.36108,R,ugm-3
01-01-2020,06:00,0.76550,R,ugm-3,12.60774,R,ugm-3,13.78149,R,ugm-3
01-01-2020,07:00,1.27583,R,ugm-3,12.14724,R,ugm-3,14.10348,R,ugm-3
01-01-2020,08:00,1.14825,R,ugm-3,12.02086,R,ugm-3,13.78149,R,ugm-3
01-01-2020,09:00,1.19077,R,ugm-3,10.08807,R,ugm-3,11.91390,R,ugm-3
01-01-2020,10:00,1.36089,R,ugm-3,9.31204,R,ugm-3,11.39871,R,ugm-3
01-01-2020,11:00,1.57352,R,ugm-3,9.50120,R,ugm-3,11.91390,R,ugm-3
01-01-2020,12:00,2.50913,R,ugm-3,12.31698,R,ugm-3,16.16426,R,ugm-3
01-01-2020,13:00,2.42408,R,ugm-3,11.67461,R,ugm-3,15.39147,R,ugm-3
01-01-2020,14:00,2.72177,R,ugm-3,14.37372,R,ugm-3,18.54704,R,ugm-3
01-01-2020,15:00,2.33902,R,ugm-3,16.82818,R,ugm-3,20.41463,R,ugm-3
01-01-2020,16:00,1.65858,R,ugm-3,18.70870,R,ugm-3,21.25182,R,ugm-3
01-01-2020,17:00,1.48847,R,ugm-3,22.89790,R,ugm-3,25.18019,R,ugm-3
01-01-2020,18:00,2.84935,R,ugm-3,30.79316,R,ugm-3,35.16210,R,ugm-3
01-01-2020,19:00,1.65858,R,ugm-3,27.27383,R,ugm-3,29.81695,R,ugm-3
01-01-2020,20:00,1.23330,R,ugm-3,21.22837,R,ugm-3,23.11941,R,ugm-3
01-01-2020,21:00,1.02066,R,ugm-3,17.30405,R,ugm-3,18.86904,R,ugm-3
01-01-2020,22:00,1.27583,R,ugm-3,15.43161,R,ugm-3,17.38785,R,ugm-3
01-01-2020,23:00,1.10572,R,ugm-3,15.88564,R,ugm-3,17.58105,R,ugm-3
01-01-2020,24:00,1.14825,R,ugm-3,15.94923,R,ugm-3,17.70985,R,ugm-3
02-01-2020,01:00,1.02392,R,ugm-3,15.48270,R,ugm-3,17.05269,R,ugm-3
02-01-2020,02:00,1.30834,R,ugm-3,15.04659,R,ugm-3,17.05269,R,ugm-3
02-01-2020,03:00,0.76794,R,ugm-3,12.84553,R,ugm-3,14.02303,R,ugm-3
02-01-2020,04:00,0.98126,R,ugm-3,9.53207,R,ugm-3,11.03664,R,ugm-3
02-01-2020,05:00,0.98126,R,ugm-3,6.22108,R,ugm-3,7.72565,R,ugm-3
02-01-2020,06:00,1.15191,R,ugm-3,6.02433,R,ugm-3,7.79057,R,ugm-3
02-01-2020,07:00,1.70654,R,ugm-3,8.35507,R,ugm-3,10.97172,R,ugm-3
02-01-2020,08:00,2.30382,R,ugm-3,13.02248,R,ugm-3,16.55496,R,ugm-3
02-01-2020,09:00,3.69749,R,ugm-3,22.54977,R,ugm-3,28.21918,R,ugm-3
02-01-2020,10:00,2.00518,R,ugm-3,15.68773,R,ugm-3,18.76229,R,ugm-3
02-01-2020,11:00,2.13317,R,ugm-3,15.88101,R,ugm-3,19.15182,R,ugm-3
02-01-2020,12:00,2.00518,R,ugm-3,16.53171,R,ugm-3,19.60627,R,ugm-3
02-01-2020,13:00,2.13317,R,ugm-3,14.71242,R,ugm-3,17.98323,R,ugm-3
02-01-2020,14:00,1.36523,R,ugm-3,14.07211,R,ugm-3,16.16544,R,ugm-3
02-01-2020,15:00,1.87719,R,ugm-3,13.15728,R,ugm-3,16.03559,R,ugm-3
02-01-2020,16:00,,,,,,,,,
02-01-2020,17:00,1.47900,R,ugm-3,16.86242,R,ugm-3,19.13018,R,ugm-3
02-01-2020,18:00,1.32257,R,ugm-3,14.07261,R,ugm-3,16.10051,R,ugm-3
02-01-2020,19:00,1.02392,R,ugm-3,11.41429,R,ugm-3,12.98428,R,ugm-3
02-01-2020,20:00,0.93859,R,ugm-3,9.66241,R,ugm-3,11.10156,R,ugm-3
02-01-2020,21:00,0.85327,R,ugm-3,9.27387,R,ugm-3,10.58219,R,ugm-3
02-01-2020,22:00,0.68261,R,ugm-3,7.13344,R,ugm-3,8.18010,R,ugm-3
02-01-2020,23:00,0.81060,R,ugm-3,7.32672,R,ugm-3,8.56963,R,ugm-3
02-01-2020,24:00,0.72528,R,ugm-3,3.23766,R,ugm-3,4.34974,R,ugm-3
03-01-2020,01:00,0.67371,R,ugm-3,1.53123,R,ugm-3,2.56423,R,ugm-3
03-01-2020,02:00,0.89828,R,ugm-3,1.78521,R,ugm-3,3.16255,R,ugm-3
03-01-2020,03:00,0.58950,R,ugm-3,3.13479,R,ugm-3,4.03867,R,ugm-3
03-01-2020,04:00,0.75792,R,ugm-3,3.38938,R,ugm-3,4.55152,R,ugm-3
03-01-2020,05:00,1.76849,R,ugm-3,3.25020,R,ugm-3,5.96184,R,ugm-3
03-01-2020,06:00,1.51585,R,ugm-3,5.04790,R,ugm-3,7.37217,R,ugm-3
03-01-2020,07:00,29.85379,R,ugm-3,35.44692,R,ugm-3,81.22209,R,ugm-3
03-01-2020,08:00,7.45292,R,ugm-3,16.84302,R,ugm-3,28.27067,R,ugm-3
03-01-2020,09:00,3.11591,R,ugm-3,11.56933,R,ugm-3,16.34699,R,ugm-3
03-01-2020,10:00,4.00016,R,ugm-3,18.80369,R,ugm-3,24.93717,R,ugm-3
03-01-2020,11:00,5.81075,R,ugm-3,22.82269,R,ugm-3,31.73239,R,ugm-3
03-01-2020,12:00,6.65289,R,ugm-3,19.48005,R,ugm-3,29.68100,R,ugm-3
03-01-2020,13:00,4.46333,R,ugm-3,12.83681,R,ugm-3,19.68049,R,ugm-3
03-01-2020,14:00,3.83173,R,ugm-3,11.62566,R,ugm-3,17.50089,R,ugm-3
03-01-2020,15:00,5.72654,R,ugm-3,17.63104,R,ugm-3,26.41160,R,ugm-3
03-01-2020,16:00,5.64232,R,ugm-3,23.40147,R,ugm-3,32.05292,R,ugm-3
03-01-2020,17:00,4.42122,R,ugm-3,26.74824,R,ugm-3,33.52735,R,ugm-3
03-01-2020,18:00,3.03170,R,ugm-3,13.94216,R,ugm-3,18.59069,R,ugm-3
03-01-2020,19:00,2.48431,R,ugm-3,12.85830,R,ugm-3,16.66752,R,ugm-3
03-01-2020,20:00,1.93692,R,ugm-3,12.47961,R,ugm-3,15.44951,R,ugm-3
03-01-2020,21:00,1.64217,R,ugm-3,12.29049,R,ugm-3,14.80845,R,ugm-3
03-01-2020,22:00,1.34742,R,ugm-3,9.53714,R,ugm-3,11.60316,R,ugm-3
03-01-2020,23:00,1.26321,R,ugm-3,8.96110,R,ugm-3,10.89799,R,ugm-3
03-01-2020,24:00,1.09478,R,ugm-3,5.18069,R,ugm-3,6.85933,R,ugm-3
04-01-2020,01:00,1.05261,R,ugm-3,2.60537,R,ugm-3,4.21935,R,ugm-3
04-01-2020,02:00,0.66481,R,ugm-3,1.09032,R,ugm-3,2.10968,R,ugm-3
04-01-2020,03:00,0.70636,R,ugm-3,0.75235,R,ugm-3,1.83542,R,ugm-3
04-01-2020,04:00,0.87256,R,ugm-3,1.25700,R,ugm-3,2.59490,R,ugm-3
04-01-2020,05:00,1.12186,R,ugm-3,1.76080,R,ugm-3,3.48096,R,ugm-3
04-01-2020,06:00,1.12186,R,ugm-3,1.63422,R,ugm-3,3.35438,R,ugm-3
04-01-2020,07:00,7.85303,R,ugm-3,15.17367,R,ugm-3,27.21481,R,ugm-3
04-01-2020,08:00,1.57892,R,ugm-3,5.99663,R,ugm-3,8.41760,R,ugm-3
04-01-2020,09:00,2.03597,R,ugm-3,5.67557,R,ugm-3,8.79735,R,ugm-3
04-01-2020,10:00,2.90853,R,ugm-3,9.52746,R,ugm-3,13.98715,R,ugm-3
04-01-2020,11:00,3.78109,R,ugm-3,7.36679,R,ugm-3,13.16437,R,ugm-3
04-01-2020,12:00,3.24093,R,ugm-3,7.18237,R,ugm-3,12.15173,R,ugm-3
04-01-2020,13:00,3.28248,R,ugm-3,9.27053,R,ugm-3,14.30360,R,ugm-3
04-01-2020,14:00,3.28248,R,ugm-3,12.43504,R,ugm-3,17.46811,R,ugm-3
04-01-2020,15:00,3.03318,R,ugm-3,13.13375,R,ugm-3,17.78456,R,ugm-3
04-01-2020,16:00,1.95287,R,ugm-3,16.68891,R,ugm-3,19.68327,R,ugm-3
04-01-2020,17:00,2.53458,R,ugm-3,19.27794,R,ugm-3,23.16423,R,ugm-3
04-01-2020,18:00,2.03597,R,ugm-3,30.80180,R,ugm-3,33.92357,R,ugm-3
04-01-2020,19:00,1.53737,R,ugm-3,30.87012,R,ugm-3,33.22738,R,ugm-3
04-01-2020,20:00,1.08031,R,ugm-3,23.27990,R,ugm-3,24.93636,R,ugm-3
04-01-2020,21:00,0.99721,R,ugm-3,19.16688,R,ugm-3,20.69591,R,ugm-3
04-01-2020,22:00,0.74791,R,ugm-3,8.78979,R,ugm-3,9.93657,R,ugm-3
04-01-2020,23:00,0.87256,R,ugm-3,9.16828,R,ugm-3,10.50618,R,ugm-3
04-01-2020,24:00,0.99721,R,ugm-3,7.96450,R,ugm-3,9.49354,R,ugm-3
05-01-2020,01:00,0.92920,R,ugm-3,3.40663,R,ugm-3,4.83137,R,ugm-3
05-01-2020,02:00,0.76522,R,ugm-3,1.82546,R,ugm-3,2.99878,R,ugm-3
05-01-2020,03:00,0.81988,R,ugm-3,1.30433,R,ugm-3,2.56146,R,ugm-3
05-01-2020,04:00,1.10684,R,ugm-3,0.55196,R,ugm-3,2.24909,R,ugm-3
05-01-2020,05:00,0.53292,R,ugm-3,0.24494,R,ugm-3,1.06207,R,ugm-3
05-01-2020,06:00,1.10684,R,ugm-3,0.92681,R,ugm-3,2.62394,R,ugm-3
05-01-2020,07:00,0.86087,R,ugm-3,1.80375,R,ugm-3,3.12373,R,ugm-3
05-01-2020,08:00,1.22982,R,ugm-3,3.67455,R,ugm-3,5.56024,R,ugm-3
05-01-2020,09:00,0.81988,R,ugm-3,2.24145,R,ugm-3,3.49858,R,ugm-3
05-01-2020,10:00,1.14783,R,ugm-3,3.42542,R,ugm-3,5.18540,R,ugm-3
05-01-2020,11:00,1.22982,R,ugm-3,4.73662,R,ugm-3,6.62231,R,ugm-3
05-01-2020,12:00,1.47578,R,ugm-3,6.04630,R,ugm-3,8.30913,R,ugm-3
05-01-2020,13:00,1.35280,R,ugm-3,8.17158,R,ugm-3,10.24584,R,ugm-3
05-01-2020,14:00,1.35280,R,ugm-3,8.73385,R,ugm-3,10.80812,R,ugm-3
05-01-2020,15:00,1.39379,R,ugm-3,8.10873,R,ugm-3,10.24584,R,ugm-3
05-01-2020,16:00,1.18882,R,ugm-3,7.67331,R,ugm-3,9.49615,R,ugm-3
05-01-2020,17:00,1.02485,R,ugm-3,7.98721,R,ugm-3,9.55862,R,ugm-3
05-01-2020,18:00,1.18882,R,ugm-3,7.86074,R,ugm-3,9.68357,R,ugm-3
05-01-2020,19:00,0.77888,R,ugm-3,7.17733,R,ugm-3,8.37160,R,ugm-3
05-01-2020,20:00,2.21367,R,ugm-3,11.28730,R,ugm-3,14.68155,R,ugm-3
05-01-2020,21:00,0.65590,R,ugm-3,4.67949,R,ugm-3,5.68519,R,ugm-3
05-01-2020,22:00,0.90187,R,ugm-3,3.05286,R,ugm-3,4.43570,R,ugm-3
05-01-2020,23:00,0.77888,R,ugm-3,2.55421,R,ugm-3,3.74848,R,ugm-3
05-01-2020,24:00,0.77888,R,ugm-3,1.36719,R,ugm-3,2.56146,R,ugm-3
06-01-2020,01:00,0.37742,R,ugm-3,0.90112,R,ugm-3,1.47982,R,ugm-3
06-01-2020,02:00,1.02442,R,ugm-3,2.53986,R,ugm-3,4.11061,R,ugm-3
06-01-2020,03:00,0.76831,R,ugm-3,2.95310,R,ugm-3,4.13116,R,ugm-3
06-01-2020,04:00,0.93006,R,ugm-3,1.59522,R,ugm-3,3.02130,R,ugm-3
06-01-2020,05:00,0.93006,R,ugm-3,2.27347,R,ugm-3,3.69954,R,ugm-3
06-01-2020,06:00,0.88962,R,ugm-3,2.70543,R,ugm-3,4.06950,R,ugm-3
06-01-2020,07:00,1.25356,R,ugm-3,4.12049,R,ugm-3,6.04259,R,ugm-3
06-01-2020,08:00,4.12462,R,ugm-3,12.97496,R,ugm-3,19.29929,R,ugm-3
06-01-2020,09:00,2.18362,R,ugm-3,15.39619,R,ugm-3,18.74436,R,ugm-3
06-01-2020,10:00,1.98143,R,ugm-3,13.30150,R,ugm-3,16.33965,R,ugm-3
06-01-2020,11:00,2.22406,R,ugm-3,12.25123,R,ugm-3,15.66140,R,ugm-3
06-01-2020,12:00,2.06231,R,ugm-3,11.51270,R,ugm-3,14.67486,R,ugm-3
06-01-2020,13:00,1.90056,R,ugm-3,9.29435,R,ugm-3,12.20850,R,ugm-3
06-01-2020,14:00,2.42625,R,ugm-3,10.02978,R,ugm-3,13.74997,R,ugm-3
06-01-2020,15:00,1.90056,R,ugm-3,11.88403,R,ugm-3,14.79818,R,ugm-3
06-01-2020,16:00,1.57706,R,ugm-3,14.22982,R,ugm-3,16.64795,R,ugm-3
06-01-2020,17:00,2.58800,R,ugm-3,17.05754,R,ugm-3,21.02574,R,ugm-3
06-01-2020,18:00,3.84156,R,ugm-3,19.20494,R,ugm-3,25.09524,R,ugm-3
06-01-2020,19:00,1.81969,R,ugm-3,24.46317,R,ugm-3,27.25331,R,ugm-3
06-01-2020,20:00,1.49619,R,ugm-3,19.03992,R,ugm-3,21.33404,R,ugm-3
06-01-2020,21:00,2.10275,R,ugm-3,14.71862,R,ugm-3,17.94279,R,ugm-3
06-01-2020,22:00,1.41531,R,ugm-3,11.82650,R,ugm-3,13.99661,R,ugm-3
06-01-2020,23:00,1.61750,R,ugm-3,6.58376,R,ugm-3,9.06388,R,ugm-3
06-01-2020,24:00,0.76831,R,ugm-3,4.67955,R,ugm-3,5.85761,R,ugm-3
07-01-2020,01:00,0.85079,R,ugm-3,4.53644,R,ugm-3,5.84097,R,ugm-3
07-01-2020,02:00,0.95714,R,ugm-3,4.61675,R,ugm-3,6.08435,R,ugm-3
07-01-2020,03:00,0.83750,R,ugm-3,3.94839,R,ugm-3,5.23254,R,ugm-3
07-01-2020,04:00,0.75774,R,ugm-3,4.67913,R,ugm-3,5.84097,R,ugm-3
07-01-2020,05:00,0.95714,R,ugm-3,3.88663,R,ugm-3,5.35423,R,ugm-3
07-01-2020,06:00,1.03690,R,ugm-3,4.37276,R,ugm-3,5.96266,R,ugm-3
07-01-2020,07:00,1.79464,R,ugm-3,9.84286,R,ugm-3,12.59460,R,ugm-3
07-01-2020,08:00,3.98809,R,ugm-3,17.55312,R,ugm-3,23.66812,R,ugm-3
07-01-2020,09:00,1.95417,R,ugm-3,16.96032,R,ugm-3,19.95666,R,ugm-3
07-01-2020,10:00,1.75476,R,ugm-3,18.42209,R,ugm-3,21.11269,R,ugm-3
07-01-2020,11:00,1.75476,R,ugm-3,13.00702,R,ugm-3,15.69762,R,ugm-3
07-01-2020,12:00,2.07381,R,ugm-3,17.32446,R,ugm-3,20.50425,R,ugm-3
07-01-2020,13:00,2.63214,R,ugm-3,17.25932,R,ugm-3,21.29522,R,ugm-3
07-01-2020,14:00,2.19345,R,ugm-3,14.46390,R,ugm-3,17.82714,R,ugm-3
07-01-2020,15:00,1.99405,R,ugm-3,11.72747,R,ugm-3,14.78497,R,ugm-3
07-01-2020,16:00,1.23631,R,ugm-3,11.85498,R,ugm-3,13.75063,R,ugm-3
07-01-2020,17:00,1.23631,R,ugm-3,11.73329,R,ugm-3,13.62894,R,ugm-3
07-01-2020,18:00,1.39583,R,ugm-3,10.75857,R,ugm-3,12.89882,R,ugm-3
07-01-2020,19:00,1.23631,R,ugm-3,10.15136,R,ugm-3,12.04701,R,ugm-3
07-01-2020,20:00,0.87738,R,ugm-3,7.65954,R,ugm-3,9.00484,R,ugm-3
07-01-2020,21:00,0.91726,R,ugm-3,3.88693,R,ugm-3,5.29338,R,ugm-3
07-01-2020,22:00,0.67798,R,ugm-3,2.24600,R,ugm-3,3.28555,R,ugm-3
07-01-2020,23:00,1.03690,R,ugm-3,1.45228,R,ugm-3,3.04217,R,ugm-3
07-01-2020,24:00,0.63810,R,ugm-3,1.33365,R,ugm-3,2.31205,R,ugm-3
08-01-2020,01:00,0.78649,R,ugm-3,0.71496,R,ugm-3,1.92089,R,ugm-3
08-01-2020,02:00,0.73406,R,ugm-3,1.11550,R,ugm-3,2.24104,R,ugm-3
08-01-2020,03:00,0.51122,R,ugm-3,1.31712,R,ugm-3,2.10098,R,ugm-3
08-01-2020,04:00,0.70784,R,ugm-3,0.89558,R,ugm-3,1.98092,R,ugm-3
08-01-2020,05:00,1.17973,R,ugm-3,2.75322,R,ugm-3,4.56212,R,ugm-3
08-01-2020,06:00,0.98311,R,ugm-3,4.43535,R,ugm-3,5.94276,R,ugm-3
08-01-2020,07:00,4.75826,R,ugm-3,17.25551,R,ugm-3,24.55141,R,ugm-3
08-01-2020,08:00,14.31410,R,ugm-3,34.29816,R,ugm-3,56.24614,R,ugm-3
08-01-2020,09:00,1.88757,R,ugm-3,24.11831,R,ugm-3,27.01255,R,ugm-3
08-01-2020,10:00,2.71339,R,ugm-3,23.81253,R,ugm-3,27.97300,R,ugm-3
08-01-2020,11:00,3.26393,R,ugm-3,21.34762,R,ugm-3,26.35225,R,ugm-3
08-01-2020,12:00,3.30325,R,ugm-3,13.72381,R,ugm-3,18.78873,R,ugm-3
08-01-2020,13:00,3.26393,R,ugm-3,14.08425,R,ugm-3,19.08887,R,ugm-3
08-01-2020,14:00,5.46610,R,ugm-3,19.95193,R,ugm-3,28.33317,R,ugm-3
08-01-2020,15:00,3.57853,R,ugm-3,14.32221,R,ugm-3,19.80921,R,ugm-3
08-01-2020,16:00,2.98866,R,ugm-3,25.31135,R,ugm-3,29.89389,R,ugm-3
08-01-2020,17:00,2.94933,R,ugm-3,24.77136,R,ugm-3,29.29361,R,ugm-3
08-01-2020,18:00,1.96622,R,ugm-3,26.21875,R,ugm-3,29.23358,R,ugm-3
08-01-2020,19:00,2.16284,R,ugm-3,31.67995,R,ugm-3,34.99626,R,ugm-3
08-01-2020,20:00,2.51677,R,ugm-3,34.67892,R,ugm-3,38.53791,R,ugm-3
08-01-2020,21:00,2.67406,R,ugm-3,26.63411,R,ugm-3,30.73428,R,ugm-3
08-01-2020,22:00,2.35947,R,ugm-3,29.45757,R,ugm-3,33.07537,R,ugm-3
08-01-2020,23:00,1.76960,R,ugm-3,26.64029,R,ugm-3,29.35364,R,ugm-3
08-01-2020,24:00,0.82581,R,ugm-3,26.88685,R,ugm-3,28.15308,R,ugm-3
09-01-2020,01:00,2.11932,R,ugm-3,27.46188,R,ugm-3,30.71145,R,ugm-3
09-01-2020,02:00,0.77536,R,ugm-3,8.44300,R,ugm-3,9.63187,R,ugm-3
09-01-2020,03:00,0.65906,R,ugm-3,11.77932,R,ugm-3,12.78986,R,ugm-3
09-01-2020,04:00,1.00797,R,ugm-3,14.38258,R,ugm-3,15.92811,R,ugm-3
09-01-2020,05:00,0.93043,R,ugm-3,13.85013,R,ugm-3,15.27678,R,ugm-3
09-01-2020,06:00,0.81413,R,ugm-3,9.40990,R,ugm-3,10.65822,R,ugm-3
09-01-2020,07:00,18.45355,R,ugm-3,28.01586,R,ugm-3,56.31090,R,ugm-3
09-01-2020,08:00,53.80992,R,ugm-3,67.59580,R,ugm-3,150.10319,R,ugm-3
09-01-2020,09:00,16.67022,R,ugm-3,58.81689,R,ugm-3,84.37753,R,ugm-3
09-01-2020,10:00,45.51358,R,ugm-3,80.43511,R,ugm-3,150.22162,R,ugm-3
09-01-2020,11:00,8.99417,R,ugm-3,41.33579,R,ugm-3,55.12666,R,ugm-3
09-01-2020,12:00,4.76846,R,ugm-3,21.82092,R,ugm-3,29.13246,R,ugm-3
09-01-2020,13:00,3.02390,R,ugm-3,9.51516,R,ugm-3,14.15174,R,ugm-3
09-01-2020,14:00,2.98513,R,ugm-3,11.70624,R,ugm-3,16.28339,R,ugm-3
09-01-2020,15:00,3.06267,R,ugm-3,18.15992,R,ugm-3,22.85595,R,ugm-3
09-01-2020,16:00,5.03983,R,ugm-3,20.75348,R,ugm-3,28.48112,R,ugm-3
09-01-2020,17:00,5.27244,R,ugm-3,25.60750,R,ugm-3,33.69180,R,ugm-3
09-01-2020,18:00,2.51992,R,ugm-3,14.19594,R,ugm-3,18.05975,R,ugm-3
09-01-2020,19:00,2.28731,R,ugm-3,12.24331,R,ugm-3,15.75047,R,ugm-3
09-01-2020,20:00,1.82209,R,ugm-3,27.04916,R,ugm-3,29.84300,R,ugm-3
09-01-2020,21:00,1.24058,R,ugm-3,14.67726,R,ugm-3,16.57945,R,ugm-3
09-01-2020,22:00,1.35688,R,ugm-3,13.55153,R,ugm-3,15.63205,R,ugm-3
09-01-2020,23:00,1.51195,R,ugm-3,8.04386,R,ugm-3,10.36215,R,ugm-3
09-01-2020,24:00,1.00797,R,ugm-3,4.31649,R,ugm-3,5.86202,R,ugm-3
10-01-2020,01:00,1.17182,R,ugm-3,2.71925,R,ugm-3,4.51601,R,ugm-3
10-01-2020,02:00,1.88510,R,ugm-3,5.67441,R,ugm-3,8.56485,R,ugm-3
10-01-2020,03:00,0.95529,R,ugm-3,3.96614,R,ugm-3,5.43089,R,ugm-3
10-01-2020,04:00,0.91708,R,ugm-3,4.08313,R,ugm-3,5.48929,R,ugm-3
10-01-2020,05:00,1.22277,R,ugm-3,5.30791,R,ugm-3,7.18280,R,ugm-3
10-01-2020,06:00,2.10163,R,ugm-3,10.85115,R,ugm-3,14.07361,R,ugm-3
10-01-2020,07:00,6.53416,R,ugm-3,26.47904,R,ugm-3,36.49795,R,ugm-3
10-01-2020,08:00,18.64719,R,ugm-3,55.38251,R,ugm-3,83.97448,R,ugm-3
10-01-2020,09:00,17.92118,R,ugm-3,61.92662,R,ugm-3,89.40537,R,ugm-3
10-01-2020,10:00,24.26428,R,ugm-3,60.37620,R,ugm-3,97.58091,R,ugm-3
10-01-2020,11:00,9.93498,R,ugm-3,36.44767,R,ugm-3,51.68109,R,ugm-3
10-01-2020,12:00,6.22847,R,ugm-3,24.78708,R,ugm-3,34.33727,R,ugm-3
10-01-2020,13:00,6.03741,R,ugm-3,22.04340,R,ugm-3,31.30064,R,ugm-3
10-01-2020,14:00,3.28619,R,ugm-3,16.15926,R,ugm-3,21.19801,R,ugm-3
10-01-2020,15:00,3.28619,R,ugm-3,17.15200,R,ugm-3,22.19075,R,ugm-3
10-01-2020,16:00,2.44553,R,ugm-3,21.06884,R,ugm-3,24.81860,R,ugm-3
10-01-2020,17:00,2.21627,R,ugm-3,27.66883,R,ugm-3,31.06705,R,ugm-3
10-01-2020,18:00,1.18456,R,ugm-3,21.83438,R,ugm-3,23.65067,R,ugm-3
10-01-2020,19:00,1.03171,R,ugm-3,21.65996,R,ugm-3,23.24189,R,ugm-3
10-01-2020,20:00,1.10813,R,ugm-3,23.58667,R,ugm-3,25.28578,R,ugm-3
10-01-2020,21:00,1.03171,R,ugm-3,20.08325,R,ugm-3,21.66518,R,ugm-3
10-01-2020,22:00,0.84065,R,ugm-3,13.60218,R,ugm-3,14.89116,R,ugm-3
10-01-2020,23:00,0.91708,R,ugm-3,10.21479,R,ugm-3,11.62095,R,ugm-3
10-01-2020,24:00,0.76423,R,ugm-3,6.18618,R,ugm-3,7.35799,R,ugm-3
11-01-2020,01:00,0.95393,R,ugm-3,4.14190,R,ugm-3,5.60456,R,ugm-3
11-01-2020,02:00,0.95393,R,ugm-3,3.22060,R,ugm-3,4.68327,R,ugm-3
11-01-2020,03:00,0.82841,R,ugm-3,1.55127,R,ugm-3,2.82148,R,ugm-3
11-01-2020,04:00,0.75310,R,ugm-3,1.20609,R,ugm-3,2.36083,R,ugm-3
11-01-2020,05:00,0.56483,R,ugm-3,1.43719,R,ugm-3,2.30325,R,ugm-3
11-01-2020,06:00,0.79076,R,ugm-3,1.03319,R,ugm-3,2.24566,R,ugm-3
11-01-2020,07:00,0.64013,R,ugm-3,1.60963,R,ugm-3,2.59115,R,ugm-3
11-01-2020,08:00,0.64013,R,ugm-3,2.12786,R,ugm-3,3.10938,R,ugm-3
11-01-2020,09:00,0.86606,R,ugm-3,3.56645,R,ugm-3,4.89440,R,ugm-3
11-01-2020,10:00,0.97903,R,ugm-3,4.77519,R,ugm-3,6.27634,R,ugm-3
11-01-2020,11:00,1.05434,R,ugm-3,5.35069,R,ugm-3,6.96732,R,ugm-3
11-01-2020,12:00,1.31793,R,ugm-3,5.34960,R,ugm-3,7.37039,R,ugm-3
11-01-2020,13:00,1.05434,R,ugm-3,5.58101,R,ugm-3,7.19764,R,ugm-3
11-01-2020,14:00,1.16730,R,ugm-3,6.27152,R,ugm-3,8.06136,R,ugm-3
11-01-2020,15:00,1.12965,R,ugm-3,5.58070,R,ugm-3,7.31280,R,ugm-3
11-01-2020,16:00,1.35558,R,ugm-3,5.98283,R,ugm-3,8.06136,R,ugm-3
11-01-2020,17:00,1.09199,R,ugm-3,5.46569,R,ugm-3,7.14006,R,ugm-3
11-01-2020,18:00,1.80744,R,ugm-3,8.68728,R,ugm-3,11.45864,R,ugm-3
11-01-2020,19:00,1.39323,R,ugm-3,10.64675,R,ugm-3,12.78301,R,ugm-3
11-01-2020,20:00,0.97903,R,ugm-3,6.44504,R,ugm-3,7.94620,R,ugm-3
11-01-2020,21:00,0.90372,R,ugm-3,4.02694,R,ugm-3,5.41263,R,ugm-3
11-01-2020,22:00,0.64013,R,ugm-3,4.48868,R,ugm-3,5.47021,R,ugm-3
11-01-2020,23:00,0.67779,R,ugm-3,3.97030,R,ugm-3,5.00956,R,ugm-3
11-01-2020,24:00,0.75310,R,ugm-3,3.91240,R,ugm-3,5.06714,R,ugm-3
12-01-2020,01:00,0.59358,R,ugm-3,4.61504,R,ugm-3,5.52518,R,ugm-3
12-01-2020,02:00,0.69251,R,ugm-3,3.17667,R,ugm-3,4.23849,R,ugm-3
12-01-2020,03:00,0.63068,R,ugm-3,3.80129,R,ugm-3,4.76831,R,ugm-3
12-01-2020,04:00,0.70487,R,ugm-3,2.94957,R,ugm-3,4.03035,R,ugm-3
12-01-2020,05:00,0.74197,R,ugm-3,3.00621,R,ugm-3,4.14389,R,ugm-3
12-01-2020,06:00,1.00166,R,ugm-3,6.41132,R,ugm-3,7.94718,R,ugm-3
12-01-2020,07:00,2.48560,R,ugm-3,14.58084,R,ugm-3,18.39203,R,ugm-3
12-01-2020,08:00,2.04042,R,ugm-3,24.57299,R,ugm-3,27.70158,R,ugm-3
12-01-2020,09:00,1.63233,R,ugm-3,22.13337,R,ugm-3,24.63624,R,ugm-3
12-01-2020,10:00,1.85493,R,ugm-3,18.10231,R,ugm-3,20.94648,R,ugm-3
12-01-2020,11:00,1.52104,R,ugm-3,16.11657,R,ugm-3,18.44880,R,ugm-3
12-01-2020,12:00,2.30011,R,ugm-3,13.38935,R,ugm-3,16.91613,R,ugm-3
12-01-2020,13:00,2.85658,R,ugm-3,11.11696,R,ugm-3,15.49699,R,ugm-3
12-01-2020,14:00,2.37430,R,ugm-3,8.62081,R,ugm-3,12.26136,R,ugm-3
12-01-2020,15:00,2.04042,R,ugm-3,8.16775,R,ugm-3,11.29634,R,ugm-3
12-01-2020,16:00,2.37430,R,ugm-3,16.22739,R,ugm-3,19.86794,R,ugm-3
12-01-2020,17:00,0.96456,R,ugm-3,19.46751,R,ugm-3,20.94648,R,ugm-3
12-01-2020,18:00,1.37264,R,ugm-3,17.59295,R,ugm-3,19.69764,R,ugm-3
12-01-2020,19:00,1.15005,R,ugm-3,14.13096,R,ugm-3,15.89435,R,ugm-3
12-01-2020,20:00,1.18715,R,ugm-3,15.77704,R,ugm-3,17.59732,R,ugm-3
12-01-2020,21:00,0.74197,R,ugm-3,11.29398,R,ugm-3,12.43165,R,ugm-3
12-01-2020,22:00,0.66777,R,ugm-3,5.50413,R,ugm-3,6.52804,R,ugm-3
12-01-2020,23:00,0.59358,R,ugm-3,5.10701,R,ugm-3,6.01715,R,ugm-3
12-01-2020,24:00,0.66777,R,ugm-3,5.67443,R,ugm-3,6.69833,R,ugm-3
13-01-2020,01:00,0.63340,R,ugm-3,9.84580,R,ugm-3,10.81699,R,ugm-3
13-01-2020,02:00,0.87701,R,ugm-3,10.29286,R,ugm-3,11.63759,R,ugm-3
13-01-2020,03:00,0.95009,R,ugm-3,8.83800,R,ugm-3,10.29479,R,ugm-3
13-01-2020,04:00,0.84047,R,ugm-3,6.88000,R,ugm-3,8.16869,R,ugm-3
13-01-2020,05:00,0.73084,R,ugm-3,5.70529,R,ugm-3,6.82589,R,ugm-3
13-01-2020,06:00,1.05972,R,ugm-3,6.87952,R,ugm-3,8.50439,R,ugm-3
13-01-2020,07:00,2.33869,R,ugm-3,16.66794,R,ugm-3,20.25388,R,ugm-3
13-01-2020,08:00,3.36186,R,ugm-3,20.35839,R,ugm-3,25.51318,R,ugm-3
13-01-2020,09:00,3.39841,R,ugm-3,31.99590,R,ugm-3,37.20672,R,ugm-3
13-01-2020,10:00,10.70680,R,ugm-3,38.30218,R,ugm-3,54.71905,R,ugm-3
13-01-2020,11:00,15.74960,R,ugm-3,38.68275,R,ugm-3,62.83180,R,ugm-3
13-01-2020,12:00,18.51461,R,ugm-3,40.16867,R,ugm-3,68.55734,R,ugm-3
13-01-2020,13:00,17.46707,R,ugm-3,40.86102,R,ugm-3,67.64349,R,ugm-3
13-01-2020,14:00,19.33071,R,ugm-3,44.32582,R,ugm-3,73.96583,R,ugm-3
13-01-2020,15:00,18.96529,R,ugm-3,44.49447,R,ugm-3,73.57419,R,ugm-3
13-01-2020,16:00,17.97866,R,ugm-3,43.43359,R,ugm-3,71.00049,R,ugm-3
13-01-2020,17:00,21.66940,R,ugm-3,47.11818,R,ugm-3,80.34413,R,ugm-3
13-01-2020,18:00,16.91894,R,ugm-3,42.54072,R,ugm-3,68.48274,R,ugm-3
13-01-2020,19:00,2.11944,R,ugm-3,13.75903,R,ugm-3,17.00878,R,ugm-3
13-01-2020,20:00,0.95009,R,ugm-3,5.48101,R,ugm-3,6.93780,R,ugm-3
13-01-2020,21:00,0.84047,R,ugm-3,6.26455,R,ugm-3,7.55324,R,ugm-3
13-01-2020,22:00,0.73084,R,ugm-3,7.55164,R,ugm-3,8.67224,R,ugm-3
13-01-2020,23:00,0.73084,R,ugm-3,5.98504,R,ugm-3,7.10564,R,ugm-3
13-01-2020,24:00,0.84047,R,ugm-3,5.98480,R,ugm-3,7.27349,R,ugm-3
14-01-2020,01:00,0.97549,R,ugm-3,3.57897,R,ugm-3,5.07469,R,ugm-3
14-01-2020,02:00,0.73162,R,ugm-3,2.38571,R,ugm-3,3.50751,R,ugm-3
14-01-2020,03:00,0.69504,R,ugm-3,0.38954,R,ugm-3,1.45524,R,ugm-3
14-01-2020,04:00,0.91452,R,ugm-3,1.06047,R,ugm-3,2.46272,R,ugm-3
14-01-2020,05:00,0.73162,R,ugm-3,2.01257,R,ugm-3,3.13437,R,ugm-3
14-01-2020,06:00,0.73162,R,ugm-3,4.36335,R,ugm-3,5.48515,R,ugm-3
14-01-2020,07:00,4.75551,R,ugm-3,14.20114,R,ugm-3,21.49282,R,ugm-3
14-01-2020,08:00,2.04853,R,ugm-3,14.60174,R,ugm-3,17.74278,R,ugm-3
14-01-2020,09:00,2.08511,R,ugm-3,22.10172,R,ugm-3,25.29885,R,ugm-3
14-01-2020,10:00,1.97537,R,ugm-3,18.07217,R,ugm-3,21.10103,R,ugm-3
14-01-2020,11:00,3.25570,R,ugm-3,21.48224,R,ugm-3,26.47424,R,ugm-3
14-01-2020,12:00,3.36544,R,ugm-3,27.07897,R,ugm-3,32.23924,R,ugm-3
14-01-2020,13:00,2.78015,R,ugm-3,22.32335,R,ugm-3,26.58618,R,ugm-3
14-01-2020,14:00,6.87720,R,ugm-3,35.68706,R,ugm-3,46.23196,R,ugm-3
14-01-2020,15:00,4.53603,R,ugm-3,34.96706,R,ugm-3,41.92220,R,ugm-3
14-01-2020,16:00,5.45055,R,ugm-3,37.81860,R,ugm-3,46.17599,R,ugm-3
14-01-2020,17:00,8.12095,R,ugm-3,40.55248,R,ugm-3,53.00444,R,ugm-3
14-01-2020,18:00,7.38934,R,ugm-3,40.38695,R,ugm-3,51.71711,R,ugm-3
14-01-2020,19:00,4.53603,R,ugm-3,43.53060,R,ugm-3,50.48575,R,ugm-3
14-01-2020,20:00,1.68272,R,ugm-3,20.14405,R,ugm-3,22.72418,R,ugm-3
14-01-2020,21:00,1.17059,R,ugm-3,11.47023,R,ugm-3,13.26510,R,ugm-3
14-01-2020,22:00,0.87794,R,ugm-3,5.25841,R,ugm-3,6.60457,R,ugm-3
14-01-2020,23:00,0.91452,R,ugm-3,4.36276,R,ugm-3,5.76500,R,ugm-3
14-01-2020,24:00,0.65846,R,ugm-3,2.79640,R,ugm-3,3.80602,R,ugm-3
15-01-2020,01:00,0.92770,R,ugm-3,2.45965,R,ugm-3,3.88210,R,ugm-3
15-01-2020,02:00,0.83005,R,ugm-3,1.41489,R,ugm-3,2.68761,R,ugm-3
15-01-2020,03:00,0.80564,R,ugm-3,2.74013,R,ugm-3,3.97542,R,ugm-3
15-01-2020,04:00,0.62254,R,ugm-3,3.35683,R,ugm-3,4.31137,R,ugm-3
15-01-2020,05:00,0.80564,R,ugm-3,2.96410,R,ugm-3,4.19939,R,ugm-3
15-01-2020,06:00,0.69578,R,ugm-3,3.35652,R,ugm-3,4.42336,R,ugm-3
15-01-2020,07:00,1.79437,R,ugm-3,6.43134,R,ugm-3,9.18266,R,ugm-3
15-01-2020,08:00,1.79437,R,ugm-3,9.73486,R,ugm-3,12.48618,R,ugm-3
15-01-2020,09:00,1.13521,R,ugm-3,13.65712,R,ugm-3,15.39776,R,ugm-3
15-01-2020,10:00,2.45352,R,ugm-3,15.72314,R,ugm-3,19.48516,R,ugm-3
15-01-2020,11:00,2.16057,R,ugm-3,16.39631,R,ugm-3,19.70913,R,ugm-3
15-01-2020,12:00,2.49014,R,ugm-3,12.81141,R,ugm-3,16.62958,R,ugm-3
15-01-2020,13:00,2.67324,R,ugm-3,10.40297,R,ugm-3,14.50189,R,ugm-3
15-01-2020,14:00,2.12395,R,ugm-3,8.10967,R,ugm-3,11.36635,R,ugm-3
15-01-2020,15:00,2.19719,R,ugm-3,7.32547,R,ugm-3,10.69444,R,ugm-3
15-01-2020,16:00,2.41690,R,ugm-3,9.90015,R,ugm-3,13.60602,R,ugm-3
15-01-2020,17:00,1.72113,R,ugm-3,10.35108,R,ugm-3,12.99011,R,ugm-3
15-01-2020,18:00,1.46479,R,ugm-3,9.23235,R,ugm-3,11.47833,R,ugm-3
15-01-2020,19:00,1.13521,R,ugm-3,7.27405,R,ugm-3,9.01469,R,ugm-3
15-01-2020,20:00,1.17183,R,ugm-3,7.32989,R,ugm-3,9.12667,R,ugm-3
15-01-2020,21:00,1.02535,R,ugm-3,4.75489,R,ugm-3,6.32708,R,ugm-3
15-01-2020,22:00,0.76902,R,ugm-3,6.88369,R,ugm-3,8.06283,R,ugm-3
15-01-2020,23:00,0.73240,R,ugm-3,3.86028,R,ugm-3,4.98328,R,ugm-3